Chubbs

Members
  • Content count

    3,415
  • Joined

  • Last visited

  • Days Won

    12

Community Reputation

633 Excellent

About Chubbs

Profile Information

  • Gender
    Not Telling
  • Location:
    New London, Pa, Elevation - 298'

Recent Profile Visitors

858 profile views
  1. Our turn between the goalposts. The models did a pretty good job of flagging the general pattern
  2. Models held serve overnight with more widespread rains than ytday's goalposts.
  3. A couple of stripes of storm reports in mid-Atlantic - with no watch issued.
  4. Doesn't look like a watch is coming either in the short term. http://www.spc.noaa.gov/products/md/md1394.html
  5. Feel a little cooler after watching the Open for a while. Great shotmaking this am also.
  6. Good luck. Models indicate today could be another goalpost day.
  7. Corn has been growing like a weed in S Chesco and is in great shape.
  8. Humidity has dropped north and east of phl. Still soup further south. EASTERN PENNSYLVANIA CITY SKY/WX TMP DP RH WIND PRES REMARKS PHILADELPHIA PTSUNNY 85 67 54 E9 29.90R NORTH PHILA MOSUNNY 84 69 60 NE8 29.91R BLUE BELL* SUNNY 79 68 69 CALM 29.92S DOYLESTOWN SUNNY 81 65 58 NE7 29.91R QUAKERTOWN* SUNNY 79 66 65 NE6 29.93F PERKASIE* FAIR 79 64 61 N7 29.94R POTTSTOWN SUNNY 80 70 71 VRB6 29.93R LANCASTER CLOUDY 81 73 76 E5 29.92R COATESVILLE MOSUNNY 79 70 73 CALM 29.94S READING SUNNY 80 73 79 N6 29.91S ALLENTOWN SUNNY 81 68 64 CALM 29.92R MOUNT POCONO CLOUDY 69 62 78 CALM 29.99R HAZLETON N/A 73 66 78 CALM 30.01S LEHIGHTON FAIR 75 70 83 CALM 29.95S WILKES BARRE CLOUDY 74 67 78 CALM 29.95S $$ DEZALL-MDZ008-012-015-019-020-221400- DELAWARE AND EASTERN MARYLAND CITY SKY/WX TMP DP RH WIND PRES REMARKS WILMINGTON MOSUNNY 83 74 74 NE9 29.90R DOVER MOSUNNY 81 81 100 S3 29.87S HX 92 GEORGETOWN PTSUNNY 81 75 82 S6 29.90R EASTON MOSUNNY 82 75 78 CALM 29.93S ABERDEEN CLOUDY 82 74 77 NE5 29.90R PATUXENT PTSUNNY 83 76 79 NW9 29.90R HX 91 OCEAN CITY SUNNY 79 75 87 VRB6 29.90R WALLOPS ISLAND CLOUDY 84 76 76 W10 29.91R HX 93 SALISBURY MOSUNNY 84 79 84 VRB3 29.89 HX 96
  9. Today's max/min - The low elevation sites generally in the low-mid 90s. .BR PHI 0721 E DH19/TAIRZS/TAIRZI/PPDRZZ/SFDRZZ/SDIRZZ : : MAX MIN SNOW SNOW :ID LOCATION TEMP TEMP PCPN FALL DEPTH : :...NORTHERN NEW JERSEY... 12N : Andover Airport : 88 / 68 / 0.00/ M/ M TTN : Mercer County AP : 92 / 72 / 0.00/ M/ M FWN : Sussex Airport : 89 / 66 / 0.01/ M/ M TEB : Teterboro : 93 / 74 / 0.00/ M/ M CDW : Caldwell : 91 / 70 / 0.00/ M/ M EWR : Newark : 94 / 75 / 0.00/ M/ M SMQ : Somerville Airport : 91 / 69 / 0.12/ M/ M BLM : Belmar Airport : 92 / 72 / 0.03/ M/ M : :...SOUTHERN NEW JERSEY... ACY : Atlantic City Airport : 93 / 78 / 0.00/ M/ M VAY : South Jersey Regional AP: 93 / 71 / 0.00/ M/ M WRI : Mcguire AFB : 93 / 71 / 0.00/ M/ M MIV : Millville AP : 93 / 75 / 0.00/ M/ M WWD : Wildwood Airport : 91 / 82 / 0.00/ M/ M ATLN4: Atlantic City Marina : 85 / 79 / 0.00/ M/ M : :...EASTERN PENNSYLVANIA... PHL : Philadelphia AP : 93 / 79 / 0.00/ M/ M ABE : Lehigh Valley Intl : 91 / 70 / 0.00/ M/ M RDG : Reading AP : 91 / 73 / 0.00/ M/ M MPO : Mount Pocono AP : 82 / 64 / 0.00/ M/ M AVP : Wilkes-Barre AP : 88 / 68 / 0.00/ M/ M PTW : Pottstown AP : 89 / 69 / 0.00/ M/ M DYL : Doylestown AP : 90 / 71 / 0.00/ M/ M PNE : Northeast Philadelphia : 94 / 76 / 0.01/ M/ M SEG : Selinsgrove AP : 88 / 67 / 0.00/ M/ M THV : York AP : 91 / 70 / 0.00/ M/ M LNS : Lancaster AP : 94 / 75 / 0.00/ M/ M UKT : Quakertown AP : 90 / 70 / 0.00/ M/ M : :...DELAWARE AND EASTERN MARYLAND... ILG : Wilmington Airport : 93 / 76 / 0.00/ M/ M GED : Georgetown AP : 95 / 79 / 0.00/ M/ M ESN : Easton Airport : 95 / 79 / 0.00/ M/ M NAK : Annapolis Naval Academy : 89 / 77 / 0.00/ M/ M DOV : Dover AFB : 91 / 78 / 0.00/ M/ M OXB : Ocean City AP : 91 / 79 / 0.00/ M/ M SBY : Salisbury AP : M / M / M/ M/ M BWI : BWI Thurgood Marshall AP: 93 / 75 / 0.00/ M/ M : .END
  10. Big cluster of storms near Chicago today is headed our way for tomorrow PM.